User: anonymous   Login
Location: Caltech
(34.1382°N, 118.1253°W)
Time: 05:02:12
(UTC-07:00)
Language:

Iridium 95 - Orbit

View from above orbital plane
View from above orbital plane
View from above satellite
View from above satellite

Ground track
Ground track

The orbit data is extracted from the following two-line orbital elements,

1 27375U 02005D   15147.43939610  .00000271  00000-0  89543-4 0  9997
2 27375 086.3997 241.7142 0002307 093.0791 267.0669 14.34219703703167
Epoch (UTC): 27 May 2015 10:32:43
Eccentricity: 0.0002307
inclination: 86.3997°
perigee height: 776 km
apogee height: 779 km
right ascension of ascending node: 241.7142°
argument of perigee: 93.0791°
revolutions per day: 14.34219703
mean anomaly at epoch: 267.0669°
orbit number at epoch: 70316

The dashed part of the orbit path shows where the satellite is in the earth's shadow,  

DLR